Wind_Speed
15 14 13 12 11 9 8 5 3 3 3 5 6 6 8 9 10 11 12 13 15 16 19 23 28 31 32 38 45 42 41 29
14 15 15 15 14 13 13 11 9 6 2 5 7 8 9 9 10 11 13 14 15 18 22 24 24 24 23 28 37 45 49 42
13 15 17 18 18 18 18 18 17 15 13 9 8 9 11 12 13 13 13 14 16 17 19 22 25 24 25 24 26 32 36 38
12 14 16 17 19 22 21 20 19 18 16 16 14 11 11 13 14 16 16 17 17 19 19 21 23 25 27 28 27 29 32 33
8 9 10 13 14 17 20 20 21 20 20 19 19 19 20 19 21 21 21 20 20 20 21 22 23 25 26 29 31 31 31 35
7 8 8 8 10 14 19 20 23 23 22 22 22 22 21 21 23 24 24 24 23 20 21 25 27 26 26 28 30 33 34 33
1 6 11 15 17 18 20 25 26 28 29 27 26 24 24 25 23 23 24 25 25 25 23 23 26 29 28 28 31 33 35 37
4 6 7 11 15 17 18 20 22 25 28 27 26 27 25 24 26 27 26 25 25 26 26 26 26 27 30 31 30 33 34 36
3 4 8 12 15 17 18 20 21 23 23 23 23 23 24 25 25 26 26 26 27 27 27 28 28 28 29 31 33 32 34 35
4 4 8 12 15 17 20 22 21 20 21 21 22 23 23 22 22 22 23 24 25 26 27 28 28 28 28 29 31 30 30 33
7 5 9 13 15 17 17 18 20 21 22 22 22 22 21 21 21 22 21 22 23 24 24 24 26 27 28 29 30 28 27 30
7 4 8 11 13 13 15 18 20 21 21 21 21 22 22 21 20 21 21 20 20 20 21 22 24 26 27 29 30 30 30 30
6 4 7 10 11 13 14 16 17 20 21 22 23 24 24 23 22 20 19 19 19 20 19 19 21 21 23 26 27 28 32 34
5 2 5 7 9 10 12 13 15 17 18 21 23 25 26 26 24 23 22 21 21 19 18 21 21 21 23 25 27 28 31 32
4 1 3 5 7 9 11 11 13 14 16 17 18 20 21 23 23 24 26 26 24 22 23 25 25 24 22 20 17 18 20 25
4 2 2 4 5 8 9 10 12 13 13 14 15 16 16 17 18 20 24 28 31 31 31 31 30 27 23 19 16 16 14 10
3 2 3 3 6 8 9 10 11 13 14 14 15 16 17 20 21 21 21 24 27 30 34 37 37 30 22 21 22 29 28 20
5 4 5 5 6 8 10 11 10 11 12 14 15 16 17 20 22 22 24 28 28 29 31 35 40 40 34 32 33 35 36 36
7 8 7 6 6 6 9 10 10 11 12 15 16 17 17 18 19 21 23 26 29 31 34 37 37 38 38 38 39 41 43 45
Wind_Direction
68 69 67 62 59 54 42 35 7 351 301 241 220 230 236 234 244 249 253 258 259 263 268 272 269 268 261 245 249 257 253 247
67 61 56 52 44 38 34 28 23 16 308 285 273 274 272 263 254 258 263 267 264 263 266 267 269 271 265 253 251 247 252 250
64 55 47 42 36 32 26 20 13 8 2 356 327 306 292 283 280 280 278 274 274 267 260 260 263 261 260 258 253 253 252 253
65 52 47 42 35 28 22 18 13 9 1 349 339 326 308 298 291 288 288 286 283 277 269 264 261 260 255 253 253 247 250 258
69 55 32 28 27 23 20 8 360 358 356 352 345 337 327 316 308 302 294 290 289 284 281 275 268 262 260 257 254 252 252 254
54 24 2 346 337 343 343 347 350 349 348 345 339 335 329 320 311 303 298 294 295 291 285 281 277 271 262 259 256 253 250 249
353 338 349 341 338 336 337 330 331 336 342 340 336 332 327 321 313 306 304 299 297 294 290 285 282 280 274 261 258 255 253 251
321 324 345 354 353 345 341 339 336 333 329 331 334 330 328 324 321 317 314 309 303 300 296 291 284 280 279 276 263 257 253 252
276 323 337 344 346 346 341 342 340 337 332 334 335 331 331 329 327 324 322 318 314 307 300 294 288 284 282 279 276 264 256 254
271 297 329 341 346 350 354 354 355 348 345 342 341 341 337 335 331 329 328 324 320 316 309 304 298 289 284 281 277 273 263 259
250 291 331 345 353 357 357 358 359 359 359 357 354 351 349 347 341 338 341 337 333 328 319 310 305 299 290 283 278 275 271 262
246 307 334 343 355 358 9 14 13 15 12 10 8 5 2 1 355 354 352 348 343 337 330 320 309 303 298 290 282 279 272 266
233 286 334 345 356 9 13 16 17 18 17 19 21 21 19 15 9 6 3 360 357 351 346 338 328 319 309 300 292 280 275 271
211 302 336 355 4 10 11 10 10 11 15 20 23 28 26 23 21 20 18 15 14 8 4 1 354 342 328 313 303 295 286 281
189 335 12 12 18 15 11 9 9 9 14 15 21 30 35 32 31 34 37 36 33 30 26 24 16 4 351 339 330 314 291 282
164 127 53 45 39 28 27 24 21 19 17 15 20 25 31 38 40 40 44 45 44 42 40 38 30 20 16 13 19 21 1 342
173 147 91 89 58 42 32 29 31 32 34 36 35 39 41 45 42 36 38 47 48 48 47 45 43 36 31 39 43 49 50 48
184 165 140 106 76 49 40 39 37 37 37 38 35 34 38 43 46 45 48 51 50 48 48 47 47 44 42 49 54 55 56 56
182 160 144 124 95 62 41 42 42 40 40 41 40 38 40 48 52 50 49 50 51 51 50 50 49 50 44 42 51 56 56 57
Height
1499 1497 1496 1495 1493 1492 1492 1490 1489 1488 1487 1487 1486 1485 1485 1484 1485 1486 1486 1485 1485 1484 1484 1484 1483 1482 1482 1483 1488 1489 1486 1490
1499 1498 1497 1496 1496 1494 1492 1491 1489 1488 1488 1488 1487 1485 1484 1483 1482 1482 1482 1481 1481 1480 1479 1478 1477 1477 1476 1478 1480 1479 1479 1482
1501 1500 1499 1498 1497 1496 1494 1493 1491 1489 1487 1485 1484 1483 1482 1482 1481 1479 1478 1477 1476 1476 1474 1473 1471 1472 1471 1472 1473 1473 1473 1475
1502 1501 1500 1499 1497 1496 1495 1494 1492 1489 1487 1486 1484 1481 1480 1478 1477 1475 1474 1472 1472 1471 1470 1468 1467 1467 1467 1465 1465 1466 1466 1465
1502 1502 1501 1499 1497 1496 1494 1493 1491 1489 1486 1484 1481 1478 1475 1473 1472 1470 1469 1466 1467 1465 1464 1462 1460 1459 1459 1460 1459 1457 1456 1456
1504 1502 1500 1497 1495 1494 1492 1490 1489 1487 1484 1481 1479 1476 1472 1469 1467 1465 1464 1462 1460 1458 1456 1454 1452 1452 1450 1450 1451 1452 1451 1449
1501 1500 1499 1498 1495 1492 1489 1486 1485 1482 1478 1477 1474 1471 1468 1465 1463 1460 1457 1454 1454 1452 1449 1446 1444 1442 1440 1441 1441 1440 1440 1439
1501 1500 1498 1497 1494 1492 1489 1486 1484 1481 1477 1474 1470 1467 1464 1461 1458 1453 1450 1447 1445 1442 1439 1436 1435 1433 1431 1430 1431 1431 1430 1429
1499 1499 1498 1496 1493 1491 1489 1487 1482 1479 1476 1474 1468 1465 1461 1456 1453 1449 1445 1441 1438 1434 1429 1427 1427 1425 1423 1421 1420 1421 1421 1420
1499 1499 1497 1495 1492 1490 1487 1484 1480 1478 1475 1471 1466 1462 1458 1454 1451 1446 1441 1437 1432 1427 1425 1422 1418 1415 1414 1413 1412 1411 1411 1409
1497 1496 1495 1493 1491 1489 1486 1484 1481 1478 1474 1469 1465 1461 1456 1452 1447 1442 1437 1432 1428 1423 1421 1417 1413 1411 1409 1407 1403 1400 1400 1401
1494 1493 1492 1491 1491 1489 1486 1483 1481 1478 1474 1471 1466 1461 1456 1450 1445 1439 1435 1430 1425 1421 1417 1413 1409 1405 1403 1398 1395 1392 1391 1390
1492 1491 1490 1490 1489 1487 1485 1484 1482 1479 1476 1472 1466 1462 1456 1450 1445 1439 1435 1429 1423 1419 1416 1413 1408 1403 1397 1392 1388 1385 1382 1380
1490 1490 1489 1489 1488 1487 1487 1485 1484 1481 1477 1472 1468 1463 1457 1452 1446 1440 1436 1430 1424 1420 1417 1412 1405 1399 1393 1386 1381 1376 1373 1369
1488 1488 1488 1488 1489 1488 1487 1486 1483 1481 1475 1473 1470 1464 1460 1455 1450 1445 1439 1433 1428 1423 1418 1412 1405 1399 1392 1384 1378 1371 1365 1360
1487 1487 1487 1489 1489 1488 1487 1486 1483 1480 1477 1475 1472 1467 1463 1458 1453 1448 1442 1437 1431 1426 1419 1414 1408 1401 1393 1384 1376 1368 1361 1355
1485 1486 1487 1489 1488 1488 1487 1485 1482 1481 1479 1476 1473 1470 1466 1460 1454 1449 1445 1441 1437 1432 1425 1418 1410 1404 1396 1387 1378 1369 1362 1355
1484 1484 1486 1487 1487 1488 1487 1485 1483 1482 1480 1477 1474 1471 1466 1460 1456 1453 1449 1445 1441 1435 1428 1422 1413 1407 1401 1392 1383 1375 1367 1360
1481 1483 1485 1487 1488 1488 1488 1486 1484 1482 1480 1478 1475 1471 1467 1464 1461 1457 1452 1448 1443 1438 1432 1425 1418 1409 1406 1399 1389 1381 1373 1364